{"data":{"norad_id":57646,"intl_designator":"2023-122Q","name":"STARLINK-30265","alt_names":[],"object_type":"PAYLOAD","status":"ACTIVE","operator":null,"country":"US","launch_date":"2023-08-17","launch_site_code":"AFETR","launch_vehicle":null,"mission":null,"orbit_class":"UNKNOWN","rcs_meters":null,"size_class":null,"mass_kg":null,"dimensions":null,"purposes":["comms"],"wikipedia_slug":null,"has_3d_model":false,"image_url":null,"decayed_at":null,"tle_current":{"epoch":"2026-09-19T21:40:55.225344Z","epoch_age_seconds":183187,"freshness":"STALE","line1":"1 57646U 23122Q   26262.90341696 -.00002818  00000+0 -92929-4 0  9999","line2":"2 57646  43.0021  75.3272 0001910 259.1642 100.8994 15.27573180171915","mean_motion":15.2757318,"eccentricity":0.000191,"inclination_deg":43.0021,"raan_deg":75.3272,"arg_perigee_deg":259.1642,"mean_anomaly_deg":100.8994,"bstar":-9.2929e-5,"rev_number":17191,"period_min":94.267169576779,"perigee_km":481.75902720424,"apogee_km":484.38000809398,"semimajor_km":6861.2065176491,"source":"CELESTRAK","updated_at":"2026-09-21T09:00:33.668076Z"}}}